Tracking 31027 objects as of 19-Jul-2025
HD Live streaming from Space Station
objects crossing your sky now

ARIANE 3 DEB

Track ARIANE 3 DEB now!
10-day predictions


NORAD ID: 20488
Int'l Code: 1988-063F
Perigee: 1,141.1 km
Apogee: 15,140.2 km
Inclination: 7.2 °
Period: 290.0 minutes
Semi major axis: 14511 km
RCS: 7.5119 m2 (large)
Launch date: July 21, 1988
Source: France (FR)
Launch site: FRENCH GUIANA (FRGUI)

Note: This is SATELLITE DEBRIS
Your satellite tracking list
FENGYUN 1C DEB
Track 1 satellite(s)




NASA's NSSDC Master Catalog

Two Line Element Set (TLE):
1 20488U 88063F   25199.37122045  .00000006  00000-0  00000-0 0  9993
2 20488   7.1700 141.3473 4823414 119.6102 296.7108  4.96625745639119
Source of the keplerian elements: AFSPC